Franklin, VA

12:43 AM EDT on August 27, 2016 (GMT -0400)
Franklin Municipal-Rose

Weather History for KFKN - March, 2014

Change the Weather History Date:

Wednesday, March 26, 2014

  Actual Average (KSFQ) Record (KSFQ)
Temperature  
Mean Temperature 35 °F -  
Max Temperature 44 °F 61 °F 80 °F (2003)
Min Temperature 26 °F 39 °F 27 °F (1983)
Degree Days  
Heating Degree Days 30    
Moisture  
Dew Point 21 °F    
Average Humidity 61    
Maximum Humidity 100    
Minimum Humidity 25    
Precipitation  
Precipitation 0.00 in - - ()
Sea Level Pressure  
Sea Level Pressure 30.09 in    
Wind  
Wind Speed 10 mph (NW)    
Max Wind Speed 22 mph    
Max Gust Speed 36 mph    
Visibility 10 miles    
Events      
Averages and records for this station are not official NWS values.
T = Trace of Precipitation, MM = Missing Value Source: NWS Daily Summary

Daily Weather History Graph

Daily Weather History Graph

Search for Another Location

Airport or City:

Trip Planner

Search our weather history database for the weather conditions in past years. The results will help you decide how hot, cold, wet, or windy it might be!

Date:

Astronomy

Mar. 26, 2014 Rise Set
Actual Time 7:02 AM EDT 7:24 PM EDT
Civil Twilight 6:36 AM EDT 7:50 PM EDT
Nautical Twilight 6:06 AM EDT 8:21 PM EDT
Astronomical Twilight 5:35 AM EDT 8:52 PM EDT
Moon 4:02 AM EDT (3/26) 3:06 PM EDT (3/26)
Length of Visible Light 13h 14m
Length of Day
12h 22m
Waning Crescent, 22% of the Moon is Illuminated
Mar 26
Waning Crescent
Mar 30
New
Apr 7
First Quarter
Apr 15
Full
Apr 22
Last Quarter

Hourly Weather History & Observations

Time (EDT) Temp. Windchill Dew Point Humidity Pressure Visibility Wind Dir Wind Speed Gust Speed Precip Events Conditions
12:15 AM 35.6 °F 27.5 °F 35.6 °F 100% 29.86 in 10.0 mi NNW 11.5 mph 17.3 mph N/A   Overcast
12:35 AM 35.6 °F 28.6 °F 35.6 °F 100% 29.87 in 10.0 mi NNW 9.2 mph - N/A   Overcast
12:55 AM 35.6 °F 30.7 °F 35.6 °F 100% 29.88 in 10.0 mi NW 5.8 mph - N/A   Overcast
1:15 AM 35.6 °F 29.9 °F 35.6 °F 100% 29.88 in 10.0 mi NW 6.9 mph - N/A   Overcast
1:35 AM 35.6 °F 29.9 °F 33.8 °F 93% 29.89 in 10.0 mi NNW 6.9 mph - N/A   Overcast
1:55 AM 35.6 °F 29.2 °F 30.2 °F 81% 29.90 in 10.0 mi NW 8.1 mph - N/A   Scattered Clouds
2:15 AM 33.8 °F 28.6 °F 30.2 °F 87% 29.91 in 10.0 mi NW 5.8 mph - N/A   Scattered Clouds
2:35 AM 33.8 °F 28.6 °F 32.0 °F 93% 29.91 in 10.0 mi NW 5.8 mph 18.4 mph N/A   Scattered Clouds
2:55 AM 33.8 °F 27.7 °F 32.0 °F 93% 29.92 in 10.0 mi NW 6.9 mph - N/A   Clear
3:15 AM 33.8 °F 27.0 °F 33.8 °F 100% 29.92 in 10.0 mi WNW 8.1 mph - N/A   Clear
3:35 AM 32.0 °F 24.8 °F 32.0 °F 100% 29.93 in 10.0 mi WNW 8.1 mph - N/A   Clear
3:55 AM 32.0 °F 24.8 °F - N/A% 29.93 in 10.0 mi WNW 8.1 mph - N/A   Clear
4:15 AM 32.0 °F 25.6 °F - N/A% 29.94 in 10.0 mi WNW 6.9 mph - N/A   Clear
4:35 AM 32.0 °F 24.8 °F 32.0 °F 100% 29.94 in 10.0 mi WNW 8.1 mph - N/A   Clear
4:55 AM 32.0 °F 24.8 °F 32.0 °F 100% 29.95 in 10.0 mi WNW 8.1 mph - N/A   Clear
5:15 AM 32.0 °F 25.6 °F 32.0 °F 100% 29.96 in 10.0 mi WNW 6.9 mph - N/A   Clear
5:35 AM 32.0 °F 23.6 °F 32.0 °F 100% 29.98 in 10.0 mi WNW 10.4 mph - N/A   Clear
5:55 AM 32.0 °F 23.6 °F 32.0 °F 100% 29.99 in 10.0 mi NW 10.4 mph 17.3 mph N/A   Clear
6:15 AM 32.0 °F 24.2 °F 30.2 °F 93% 30.00 in 10.0 mi NW 9.2 mph - N/A   Clear
6:35 AM 32.0 °F 23.0 °F 28.4 °F 87% 30.02 in 10.0 mi NW 11.5 mph 16.1 mph N/A   Clear
6:55 AM 32.0 °F 24.8 °F 26.6 °F 80% 30.03 in 10.0 mi NW 8.1 mph 18.4 mph N/A   Clear
7:15 AM 32.0 °F 24.8 °F 26.6 °F 80% 30.04 in 10.0 mi NW 8.1 mph - N/A   Clear
7:35 AM 32.0 °F 26.4 °F 24.8 °F 75% 30.05 in 10.0 mi NW 5.8 mph - N/A   Clear
7:55 AM 33.8 °F 27.7 °F 24.8 °F 70% 30.07 in 10.0 mi NW 6.9 mph - N/A   Clear
8:15 AM 33.8 °F 26.4 °F 23.0 °F 65% 30.08 in 10.0 mi NW 9.2 mph 16.1 mph N/A   Clear
8:35 AM 33.8 °F 25.3 °F 21.2 °F 60% 30.09 in 10.0 mi NW 11.5 mph 19.6 mph N/A   Clear
8:55 AM 33.8 °F 24.3 °F 21.2 °F 60% 30.11 in 10.0 mi NW 13.8 mph 24.2 mph N/A   Clear
9:15 AM 35.6 °F 27.1 °F 19.4 °F 52% 30.12 in 10.0 mi NW 12.7 mph 27.6 mph N/A   Clear
9:35 AM 35.6 °F 24.8 °F 17.6 °F 48% 30.13 in 10.0 mi NW 19.6 mph 29.9 mph N/A   Clear
9:55 AM 35.6 °F 26.2 °F 15.8 °F 44% 30.14 in 10.0 mi NW 15.0 mph 35.7 mph N/A   Clear
10:15 AM 35.6 °F 25.5 °F 15.8 °F 44% 30.15 in 10.0 mi NW 17.3 mph 29.9 mph N/A   Clear
10:35 AM 37.4 °F 27.8 °F 17.6 °F 45% 30.15 in 10.0 mi WNW 17.3 mph 33.4 mph N/A   Clear
10:55 AM 37.4 °F 29.3 °F 14.0 °F 38% 30.16 in 10.0 mi NNW 12.7 mph 25.3 mph N/A   Clear
11:15 AM 37.4 °F 30.8 °F 14.0 °F 38% 30.15 in 10.0 mi NNW 9.2 mph 25.3 mph N/A   Clear
11:35 AM 37.4 °F 28.9 °F 15.8 °F 41% 30.16 in 10.0 mi NW 13.8 mph 26.5 mph N/A   Clear
11:55 AM 39.2 °F 29.0 °F 15.8 °F 39% 30.17 in 10.0 mi WNW 21.9 mph 35.7 mph N/A   Scattered Clouds
12:15 PM 39.2 °F 32.0 °F 14.0 °F 36% 30.17 in 10.0 mi NW 11.5 mph 21.9 mph N/A   Scattered Clouds
12:35 PM 39.2 °F 31.6 °F 15.8 °F 39% 30.17 in 10.0 mi WNW 12.7 mph 28.8 mph N/A   Scattered Clouds
12:55 PM 39.2 °F 32.5 °F 15.8 °F 39% 30.17 in 10.0 mi NW 10.4 mph 26.5 mph N/A   Scattered Clouds
1:15 PM 41.0 °F 33.5 °F 17.6 °F 39% 30.17 in 10.0 mi WNW 13.8 mph 26.5 mph N/A   Scattered Clouds
1:35 PM 39.2 °F 29.6 °F 15.8 °F 39% 30.17 in 10.0 mi WNW 19.6 mph 25.3 mph N/A   Scattered Clouds
1:55 PM 41.0 °F 36.4 °F 17.6 °F 39% 30.16 in 10.0 mi NW 6.9 mph 26.5 mph N/A   Scattered Clouds
2:15 PM 41.0 °F 33.9 °F 15.8 °F 36% 30.16 in 10.0 mi NNW 12.7 mph 27.6 mph N/A   Scattered Clouds
2:35 PM 42.8 °F 34.3 °F 15.8 °F 34% 30.16 in 10.0 mi WNW 19.6 mph 28.8 mph N/A   Clear
2:55 PM 42.8 °F 35.1 °F 12.2 °F 29% 30.17 in 10.0 mi NW 16.1 mph 24.2 mph N/A   Clear
3:15 PM 42.8 °F 36.2 °F 12.2 °F 29% 30.16 in 10.0 mi NNW 12.7 mph 24.2 mph N/A   Clear
3:35 PM 42.8 °F 36.2 °F 12.2 °F 29% 30.17 in 10.0 mi NW 12.7 mph 18.4 mph N/A   Clear
3:55 PM 44.6 °F 36.4 °F 12.2 °F 27% 30.17 in 10.0 mi NW 20.7 mph 29.9 mph N/A   Clear
4:15 PM 42.8 °F 34.8 °F 12.2 °F 29% 30.17 in 10.0 mi WNW 17.3 mph 24.2 mph N/A   Clear
4:35 PM 44.6 °F 38.4 °F 12.2 °F 27% 30.17 in 10.0 mi NNW 12.7 mph 20.7 mph N/A   Clear
4:55 PM 44.6 °F 39.7 °F 14.0 °F 29% 30.17 in 10.0 mi NNW 9.2 mph 17.3 mph N/A   Clear
5:35 PM 44.6 °F 39.7 °F 12.2 °F 27% 30.18 in 10.0 mi NW 9.2 mph 19.6 mph N/A   Clear
5:55 PM 44.6 °F 38.4 °F 12.2 °F 27% 30.19 in 10.0 mi NW 12.7 mph 17.3 mph N/A   Clear
6:15 PM 44.6 °F 37.8 °F 10.4 °F 25% 30.20 in 10.0 mi WNW 15.0 mph 19.6 mph N/A   Clear
7:15 PM 41.0 °F 37.1 °F 10.4 °F 29% 30.23 in 10.0 mi NW 5.8 mph 18.4 mph N/A   Clear
8:15 PM 39.2 °F 37.0 °F 10.4 °F 31% 30.26 in 10.0 mi NW 3.5 mph - N/A   Clear
8:35 PM 37.4 °F - 12.2 °F 36% 30.26 in 10.0 mi Calm Calm - N/A   Clear
9:55 PM 30.2 °F - 19.4 °F 64% 30.30 in 10.0 mi Calm Calm - N/A   Clear
10:55 PM 28.4 °F - 19.4 °F 69% 30.32 in 10.0 mi Calm Calm - N/A   Clear
11:15 PM 26.6 °F - 19.4 °F 74% 30.33 in 10.0 mi Calm Calm - N/A   Clear
11:35 PM 28.4 °F - 21.2 °F 74% 30.34 in 10.0 mi Calm Calm - N/A   Clear
11:55 PM 28.4 °F - 21.2 °F 74% 30.35 in 10.0 mi Calm Calm - N/A   Clear